sat.trackr.live / text

‹ back to catalog

STARLINK-4333

NORAD 53088 · 2022-077AX

PAYLOAD ACTIVE UNKNOWN

§ Identity

Operator
Country
US
Launch date
2022-07-11
Launch site
AFWTR
Launch vehicle
Mass (kg)
RCS (m²)

Purposes: comms

External: N2YO · Heavens-Above · Gunter

§ Orbital elements

Epoch: 2026-09-19T22:05:13.176096Z

Period
93.91 min
Inclination
97.2855°
Eccentricity
0.0001608
Mean motion
15.33442210 rev/d
Perigee alt
464.5 km
Apogee alt
466.7 km
Semi-major
6,843.7 km
B*
-1.3592e-5
RAAN
77.6786°
Arg perigee
83.0359°
Mean anomaly
277.1067°
Rev number
23,020

§ Raw data

STARLINK-43331 53088U 22077AX  26262.92029139 -.00000514  00000+0 -13592-4 0  99902 53088  97.2855  77.6786 0001608  83.0359 277.1067 15.33442210230208

JSON: /api/v1/satellites/53088 · /tle

For live sub-satellite position, see the globe view (requires WebGL).

§ Visibility from observer

Set your observer location to see the next 7 days of passes ≥ 10°. The values pass through the URL so the page stays shareable.

No JS? Fill the form by hand. The geolocation button needs JavaScript.